Tampa Macdill AFB, FL

6:27 AM EDT on October 19, 2019 (GMT -0400)
MacDill Air Force Base

Weather History for KMCF - August, 2019

Change the Weather History Date:

Thursday, August 29, 2019

  Actual Average Record
Temperature  
Mean Temperature 85 °F -  
Max Temperature 93 °F 88 °F 95 °F (2001)
Min Temperature 77 °F 73 °F 71 °F (2018)
Cooling Degree Days 20    
Growing Degree Days 35 (Base 50)    
Moisture  
Dew Point 74 °F    
Average Humidity 71    
Maximum Humidity 93    
Minimum Humidity 48    
Precipitation  
Precipitation 0.00 in - - ()
Sea Level Pressure  
Sea Level Pressure 29.91 in    
Wind  
Wind Speed 7 mph (ENE)    
Max Wind Speed 16 mph    
Max Gust Speed 22 mph    
Visibility 10 miles    
Events Thunderstorm    
Averages and records for this station are not official NWS values.
T = Trace of Precipitation, MM = Missing Value Source: NWS Daily Summary

Daily Weather History Graph

Daily Weather History Graph

Search for Another Location

Airport or City:

Astronomy

Aug. 29, 2019 Rise Set
Actual Time 7:07 AM EDT 7:54 PM EDT
Civil Twilight 6:43 AM EDT 8:18 PM EDT
Nautical Twilight 6:15 AM EDT 8:46 PM EDT
Astronomical Twilight 5:46 AM EDT 9:15 PM EDT
Moon 6:02 AM EDT (8/29) 7:42 PM EDT (8/29)
Length of Visible Light 13h 34m
Length of Day
12h 47m
Waning Crescent, 1% of the Moon is Illuminated
Aug 29
Waning Crescent
Aug 30
New
Sep 5
First Quarter
Sep 14
Full
Sep 21
Last Quarter

Hourly Weather History & Observations

Time (EDT) Temp. Heat Index Dew Point Humidity Pressure Visibility Wind Dir Wind Speed Gust Speed Precip Events Conditions
12:56 AM 82.6 °F 92.0 °F 77.9 °F 86% 29.91 in 10.0 mi North 3.5 mph - N/A   Clear
1:56 AM 82.0 °F 91.0 °F 78.1 °F 88% 29.90 in 10.0 mi North 5.8 mph - N/A   Partly Cloudy
2:56 AM 81.7 °F 88.3 °F 75.2 °F 81% 29.89 in 10.0 mi North 5.8 mph - N/A   Clear
3:56 AM 79.2 °F - 74.1 °F 84% 29.87 in 10.0 mi NE 3.5 mph - N/A   Clear
4:56 AM 78.8 °F - 74.5 °F 87% 29.88 in 10.0 mi NE 3.5 mph - N/A   Clear
5:56 AM 77.7 °F - 74.5 °F 90% 29.90 in 10.0 mi NE 3.5 mph - N/A   Clear
6:56 AM 77.4 °F - 75.2 °F 93% 29.92 in 10.0 mi NE 4.6 mph - N/A   Clear
7:56 AM 79.2 °F - 76.6 °F 92% 29.92 in 10.0 mi ENE 4.6 mph - N/A   Clear
8:56 AM 82.4 °F 90.9 °F 77.0 °F 84% 29.94 in 10.0 mi East 6.9 mph - N/A   Clear
9:56 AM 85.5 °F 95.0 °F 75.7 °F 73% 29.96 in 10.0 mi ENE 6.9 mph - N/A   Clear
10:56 AM 87.6 °F 97.1 °F 75.2 °F 66% 29.97 in 10.0 mi ENE 11.5 mph - N/A   Clear
12:56 PM 90.3 °F 99.9 °F 74.5 °F 59% 29.95 in 10.0 mi ESE 9.2 mph - N/A   Clear
2:35 PM 91.4 °F 100.1 °F 73.4 °F 55% 29.92 in 10.0 mi East 8.1 mph - N/A   Scattered Clouds
2:56 PM 91.0 °F 99.3 °F 73.0 °F 55% 29.91 in 10.0 mi NE 6.9 mph - 0.00 in   Scattered Clouds
3:56 PM 92.8 °F 100.3 °F 72.0 °F 50% 29.89 in 10.0 mi NE 9.2 mph - N/A   Scattered Clouds
4:56 PM 93.2 °F 99.9 °F 71.1 °F 48% 29.87 in 10.0 mi ENE 10.4 mph - N/A   Scattered Clouds
5:49 PM 91.4 °F 98.4 °F 71.6 °F 52% 29.88 in 10.0 mi NE 10.4 mph 18.4 mph N/A   Light Drizzle
5:56 PM 91.6 °F 98.2 °F 70.9 °F 51% 29.88 in 10.0 mi NE 9.2 mph 18.4 mph 0.00 in   Light Drizzle
5:58 PM 91.4 °F 98.4 °F 71.6 °F 52% 29.88 in 10.0 mi NE 9.2 mph - N/A   Mostly Cloudy
6:22 PM 91.4 °F 96.8 °F 69.8 °F 49% 29.88 in 10.0 mi ESE 15.0 mph 20.7 mph N/A   Mostly Cloudy
6:44 PM 87.8 °F 93.8 °F 71.6 °F 58% 29.87 in 10.0 mi East 10.4 mph - N/A   Light Drizzle
6:53 PM 86.0 °F 93.4 °F 73.4 °F 66% 29.88 in 10.0 mi ESE 13.8 mph - N/A Thunderstorm Mostly Cloudy
6:56 PM 85.5 °F 92.6 °F 73.2 °F 67% 29.88 in 10.0 mi ESE 16.1 mph 21.9 mph 0.00 in Thunderstorm Mostly Cloudy
7:56 PM 84.2 °F 92.3 °F 75.0 °F 74% 29.92 in 10.0 mi ESE 6.9 mph - N/A   Clear
8:56 PM 83.1 °F 91.3 °F 75.9 °F 79% 29.94 in 10.0 mi SE 3.5 mph - N/A   Clear
9:56 PM 82.2 °F 89.6 °F 75.7 °F 81% 29.97 in 10.0 mi ENE 4.6 mph - N/A   Clear
10:56 PM 81.0 °F 86.0 °F 73.4 °F 78% 29.98 in 10.0 mi ENE 8.1 mph - N/A   Clear
11:56 PM 80.2 °F 84.7 °F 73.4 °F 80% 29.97 in 10.0 mi ENE 9.2 mph - N/A   Clear